WBKSWBKK

Guest
Details From WBKS - Sandakan
To WBKK - Kota Kinabalu Intl
Flight Number -
Tags generated
Created
Modified
Stats Distance 125 nm / 231 km
Max Altitude 16,500 ft / 5,029 m
Waypoints 4
Social Downloads 2
Likes 0
Share VATSIM

Download

Looking for another format? Having issues loading an existing format? Contact us
Advertisement - Login to hide

Notes

Basic altitude profile: - Ascent Rate: 2500ft/min - Ascent Speed: 250kts - Cruise Altitude: 35000ft - Cruise Speed: 420kts - Descent Rate: 1500ft/min - Descent Speed: 250kts Options: - Use NATs: yes - Use PACOTS: yes - Use low airways: yes - Use high airways: yes

Route

WBKS VSN A341 VJN WBKK

ID Type Via Altitude Latitude Longitude Leg Dist Tot Dist Heading (true) Name
O WBKS APT - 0 ft / 0 m 5.90090˚ 118.05949˚ - 0 nm - Sandakan
VSN VOR - 200 ft / 61 m 5.90606˚ 118.06831˚ 0 nm 0 nm 60° / 60° SANDAKAN VOR-DME
VJN VOR A341 (AWY-LO) 16,500 ft / 5,029 m 5.89967˚ 116.02994˚ 121 nm 122 nm 270° / 270° KOTA KINABALU VOR-DME
O WBKK APT - 0 ft / 0 m 5.93721˚ 116.05118˚ 2 nm 124 nm 29° / 29° Kota Kinabalu Intl

Altitude Profile

Advertisement - Login to hide

WBKS

Details ICAO WBKS (SDK)
Name Sandakan
Region Brunei and Malaysia
Timezone Asia/Kuching (UTC+8.0)
Stats Elevation 46 ft / 14 m (AMSL)
Location 5.900897° 118.059486°
Runways 1
Magnetic Variation 0.504° W

METAR

WBKS 140000Z VRB02KT 9999 FEW016 SCT140 BKN290 28/25 Q1009

Decode

TAF

TAF WBKS 131700Z 1318/1418 26005KT 9999 FEW015 PROB30 TEMPO 1409/1413 4000 TSRA FEW010 FEW016CB SCT040

Decode

Departure Runways

ID Width Length Bearing (true) Bearing (mag) Surface Threshold Offset Overrun Length
08 151 ft / 46 m 7,010 ft / 2,137 m 80.56° 81.06° Asphalt 0 ft / 0 m 198 ft / 60 m
26 151 ft / 46 m 7,010 ft / 2,137 m 260.56° 261.06° Asphalt 0 ft / 0 m 198 ft / 60 m

WBKK

Details ICAO WBKK (BKI)
Name Kota Kinabalu Intl
Region Brunei and Malaysia
Timezone Asia/Kuching (UTC+8.0)
Stats Elevation 10 ft / 3 m (AMSL)
Location 5.937208° 116.051181°
Runways 1
Magnetic Variation 0.408° W

METAR

WBKK 140030Z 16004KT 100V210 9999 FEW014 FEW016CB SCT140 BKN270 28/23 Q1010 NOSIG

Decode

TAF

TAF WBKK 132300Z 1400/1500 25005KT 9999 FEW014 TEMPO 1408/1412 3000 TSRA FEW010 FEW015CB SCT030

Decode

Destination Runways

ID Width Length Bearing (true) Bearing (mag) Surface Threshold Offset Overrun Length
02 150 ft / 46 m 9,836 ft / 2,998 m 22.73° 23.14° Asphalt 1,600 ft / 488 m 0 ft / 0 m
20 150 ft / 46 m 9,836 ft / 2,998 m 202.73° 203.14° Asphalt 200 ft / 61 m 0 ft / 0 m

Approach Navaids

Runway Type Ident Frequency Range Bearing (true) Bearing (mag) Slope Elevation
02 Localiser IKKS 110.30 MHz 18 nm / 33 km 22.73° 23.14° - 10 ft / 3 m (AMSL)
02 Glidescope IKKS 110.30 MHz 10 nm / 19 km 22.73° 23.14° 3.00° 10 ft / 3 m (AMSL)
02 DME IKKS 110.30 MHz 18 nm / 33 km - - - 10 ft / 3 m (AMSL)

Popular Alternatives